�������l�o���
Date,Time,MP-1(��Sv/h),MP-2(��Sv/h),MP-3(��Sv/h),MP-4(��Sv/h),MP-5(��Sv/h),MP-6(��Sv/h),MP-7(��Sv/h),MP-8(��Sv/h),����,����(m/s),���J
2021/10/20,00:00,0.579,0.863,0.552,1.048,0.741,0.357,0.617,0.581,�k��,3.7,��
2021/10/20,00:10,0.580,0.864,0.553,1.050,0.740,0.358,0.616,0.582,�k��,3.9,��
2021/10/20,00:20,0.579,0.865,0.550,1.054,0.740,0.358,0.617,0.579,�k��,4.1,��
2021/10/20,00:30,0.580,0.864,0.552,1.051,0.741,0.357,0.617,0.580,�k�k��,3.7,�L
2021/10/20,00:40,0.582,0.865,0.553,1.054,0.742,0.356,0.618,0.580,�k�k��,4.2,��
2021/10/20,00:50,0.580,0.866,0.552,1.052,0.743,0.358,0.616,0.581,�k�k��,3.7,�L
2021/10/20,01:00,0.582,0.865,0.555,1.053,0.740,0.357,0.617,0.581,�k��,4.4,�L
2021/10/20,01:10,0.581,0.865,0.553,1.053,0.741,0.359,0.616,0.582,�k��,4.9,�L
2021/10/20,01:20,0.580,0.861,0.552,1.049,0.736,0.359,0.615,0.580,�k��,4.4,�L
2021/10/20,01:30,0.580,0.856,0.551,1.049,0.736,0.360,0.613,0.579,���k��,4.2,�L
2021/10/20,01:40,0.579,0.852,0.550,1.046,0.735,0.361,0.614,0.579,�k��,4.2,�L
2021/10/20,01:50,0.580,0.854,0.551,1.045,0.735,0.362,0.612,0.580,�k��,2.0,�L
2021/10/20,02:00,0.579,0.855,0.550,1.044,0.733,0.360,0.612,0.581,���k��,1.2,�L
2021/10/20,02:10,0.578,0.853,0.550,1.044,0.736,0.360,0.613,0.579,��,1.4,�L
2021/10/20,02:20,0.578,0.852,0.549,1.044,0.736,0.361,0.611,0.579,���k��,1.9,��
2021/10/20,02:30,0.577,0.852,0.547,1.042,0.734,0.360,0.612,0.578,�k��,1.7,��
2021/10/20,02:40,0.575,0.850,0.547,1.041,0.735,0.356,0.611,0.577,���k��,2.6,��
2021/10/20,02:50,0.574,0.849,0.547,1.043,0.731,0.357,0.611,0.578,���k��,3.4,��
2021/10/20,03:00,0.574,0.848,0.545,1.042,0.732,0.357,0.613,0.577,���k��,4.8,�L
2021/10/20,03:10,0.572,0.850,0.545,1.043,0.731,0.357,0.611,0.578,���k��,5.5,��
2021/10/20,03:20,0.573,0.848,0.544,1.038,0.732,0.357,0.613,0.578,���k��,5.7,��
2021/10/20,03:30,0.574,0.850,0.544,1.040,0.731,0.357,0.612,0.576,���k��,5.2,�L
2021/10/20,03:40,0.572,0.847,0.544,1.042,0.731,0.356,0.613,0.576,���k��,3.9,�L
2021/10/20,03:50,0.573,0.845,0.546,1.040,0.732,0.356,0.611,0.576,���k��,3.9,�L
2021/10/20,04:00,0.572,0.846,0.543,1.039,0.730,0.357,0.611,0.577,��,3.6,��
2021/10/20,04:10,0.573,0.846,0.545,1.037,0.731,0.356,0.611,0.579,��,3.5,��
2021/10/20,04:20,0.571,0.845,0.545,1.040,0.730,0.355,0.610,0.577,��,3.5,��
2021/10/20,04:30,0.572,0.847,0.545,1.039,0.732,0.357,0.610,0.578,���k��,4.2,��
2021/10/20,04:40,0.571,0.846,0.542,1.036,0.731,0.355,0.610,0.578,���k��,3.7,��
2021/10/20,04:50,0.572,0.845,0.544,1.038,0.730,0.355,0.611,0.577,�k��,4.9,��
2021/10/20,05:00,0.570,0.848,0.544,1.039,0.728,0.354,0.610,0.577,���k��,6.0,��
2021/10/20,05:10,0.570,0.847,0.543,1.038,0.731,0.354,0.609,0.577,���k��,4.8,��
2021/10/20,05:20,0.570,0.846,0.544,1.036,0.730,0.354,0.611,0.578,���k��,4.4,��
2021/10/20,05:30,0.571,0.847,0.542,1.040,0.730,0.355,0.610,0.577,��,3.6,��
2021/10/20,05:40,0.571,0.846,0.542,1.038,0.728,0.355,0.612,0.578,��,3.6,��
2021/10/20,05:50,0.570,0.845,0.542,1.039,0.729,0.355,0.609,0.578,��,5.3,��
2021/10/20,06:00,0.569,0.846,0.543,1.038,0.729,0.353,0.612,0.576,��,8.3,��
2021/10/20,06:10,0.570,0.847,0.543,1.038,0.729,0.354,0.612,0.576,���k��,8.9,��
2021/10/20,06:20,0.570,0.847,0.544,1.038,0.726,0.355,0.612,0.577,�k��,9.0,��
2021/10/20,06:30,0.570,0.844,0.543,1.041,0.728,0.354,0.613,0.576,�k��,8.9,��
2021/10/20,06:40,0.571,0.847,0.544,1.040,0.730,0.354,0.613,0.577,���k��,8.4,��
2021/10/20,06:50,0.571,0.846,0.543,1.039,0.727,0.354,0.614,0.577,���k��,6.6,��
2021/10/20,07:00,0.571,0.848,0.544,1.036,0.730,0.355,0.612,0.576,�k��,6.3,��
2021/10/20,07:10,0.570,0.846,0.545,1.040,0.730,0.354,0.614,0.577,���k��,6.3,��
2021/10/20,07:20,0.571,0.849,0.544,1.040,0.731,0.355,0.614,0.578,���k��,7.1,��
2021/10/20,07:30,0.571,0.847,0.543,1.044,0.731,0.355,0.612,0.578,��,4.8,��
2021/10/20,07:40,0.573,0.850,0.543,1.042,0.730,0.354,0.615,0.577,��,5.7,��
2021/10/20,07:50,0.572,0.849,0.546,1.042,0.729,0.356,0.615,0.578,���k��,6.5,��
2021/10/20,08:00,0.571,0.853,0.546,1.041,0.730,0.356,0.614,0.579,��,7.1,��
2021/10/20,08:10,0.573,0.847,0.544,1.039,0.731,0.356,0.614,0.577,��,5.5,��
2021/10/20,08:20,0.572,0.849,0.547,1.043,0.730,0.354,0.613,0.578,��,4.4,��
2021/10/20,08:30,0.573,0.849,0.545,1.041,0.732,0.352,0.614,0.579,���쐼,5.0,��
2021/10/20,08:40,0.574,0.847,0.546,1.040,0.733,0.354,0.615,0.579,���쐼,6.7,��
2021/10/20,08:50,0.573,0.847,0.545,1.042,0.733,0.352,0.614,0.578,��,8.5,��
2021/10/20,09:00,0.575,0.847,0.545,1.044,0.734,0.354,0.614,0.579,��,6.2,��
2021/10/20,09:10,0.571,0.848,0.546,1.045,0.732,0.354,0.616,0.577,��,4.4,��
2021/10/20,09:20,0.573,0.849,0.547,1.044,0.731,0.354,0.614,0.577,��,7.4,��
2021/10/20,09:30,0.573,0.848,0.547,1.047,0.731,0.354,0.614,0.577,��,5.5,��
2021/10/20,09:40,0.574,0.849,0.546,1.047,0.732,0.354,0.616,0.575,��,5.7,��
2021/10/20,09:50,0.572,0.850,0.546,1.044,0.730,0.354,0.614,0.577,��,5.7,��
2021/10/20,10:00,0.573,0.850,0.547,1.046,0.731,0.355,0.613,0.576,��,6.1,��
2021/10/20,10:10,0.572,0.854,0.546,1.042,0.733,0.353,0.615,0.576,���k��,5.8,��
2021/10/20,10:20,0.574,0.850,0.548,1.047,0.734,0.355,0.614,0.576,���k��,6.5,��
2021/10/20,10:30,0.575,0.852,0.549,1.044,0.734,0.355,0.615,0.576,��,6.4,��
2021/10/20,10:40,0.575,0.848,0.548,-,0.734,0.355,0.615,0.578,��,8.2,��
2021/10/20,10:50,0.576,0.847,0.547,-,0.735,0.355,0.615,0.575,���k��,11.4,��
2021/10/20,11:00,0.576,0.844,0.548,-,0.738,0.354,0.613,0.577,��,9.9,��
2021/10/20,11:10,0.576,0.844,0.548,-,0.737,0.354,0.613,0.576,���k��,10.6,�L
2021/10/20,11:20,0.575,0.847,0.548,-,0.736,0.354,0.614,0.576,���k��,6.3,��
2021/10/20,11:30,0.576,0.839,0.548,-,0.737,0.355,0.614,0.578,��,7.9,��
2021/10/20,11:40,0.575,0.842,0.548,-,0.736,0.355,0.614,0.577,��,6.5,��
2021/10/20,11:50,0.576,0.841,0.549,-,0.734,0.356,0.614,0.577,���쐼,6.6,��
2021/10/20,12:00,0.576,0.845,0.548,-,0.737,0.356,0.614,0.577,��,7.6,��
2021/10/20,12:10,0.576,0.847,0.550,-,0.739,0.355,0.614,0.576,��,9.6,��
2021/10/20,12:20,0.577,0.852,0.551,-,0.738,0.355,0.615,0.577,��,10.6,��
2021/10/20,12:30,0.576,0.857,0.550,-,0.738,0.356,0.615,0.577,��,10.4,��
2021/10/20,12:40,0.576,0.858,0.550,-,0.738,0.357,0.614,0.576,��,12.8,��
2021/10/20,12:50,0.576,0.860,0.551,-,0.739,0.356,0.615,0.578,��,9.9,��
2021/10/20,13:00,0.578,0.856,0.549,-,0.738,0.356,0.613,0.577,��,10.8,��
2021/10/20,13:10,0.579,0.858,0.548,1.051,0.739,0.356,0.615,0.576,��,11.6,��
2021/10/20,13:20,0.578,0.858,0.548,1.051,0.739,0.355,0.615,0.580,���k��,8.9,��
2021/10/20,13:30,0.579,0.856,0.548,1.052,0.738,0.355,0.615,0.578,��,7.1,��
2021/10/20,13:40,0.578,0.857,0.549,1.052,0.740,0.357,0.613,0.577,���k��,11.8,��
2021/10/20,13:50,0.579,0.859,0.550,1.051,0.739,0.357,0.616,0.578,��,7.5,��
2021/10/20,14:00,0.579,0.857,0.551,1.054,0.739,0.355,0.614,0.578,��,8.3,��
2021/10/20,14:10,0.580,0.859,0.551,1.053,0.740,0.357,0.615,0.578,���k��,11.9,��
2021/10/20,14:20,0.578,0.858,0.549,1.052,0.740,0.357,0.616,0.578,��,10.0,��
2021/10/20,14:30,0.578,0.859,0.550,1.051,0.741,0.356,0.614,0.577,��,10.7,��
2021/10/20,14:40,0.579,0.859,0.551,1.052,0.740,0.357,0.615,0.578,��,7.1,��
2021/10/20,14:50,0.577,0.860,0.550,1.054,0.742,0.355,0.615,0.578,���k��,6.0,��
2021/10/20,15:00,0.579,0.861,0.550,1.055,0.740,0.357,0.615,0.578,��,6.4,��
2021/10/20,15:10,0.578,0.859,0.549,1.053,0.740,0.356,0.615,0.578,��,6.2,��
2021/10/20,15:20,0.578,0.860,0.550,1.054,0.741,0.358,0.614,0.576,��,6.3,��
2021/10/20,15:30,0.578,0.861,0.551,1.054,0.740,0.356,0.613,0.578,���k��,4.8,��
2021/10/20,15:40,0.578,0.861,0.550,1.053,0.741,0.356,0.615,0.576,�k�k��,4.5,��
2021/10/20,15:50,0.578,0.861,0.548,1.056,0.740,0.358,0.613,0.578,�k�k��,5.5,��
2021/10/20,16:00,0.576,0.861,0.549,1.055,0.739,0.357,0.615,0.579,�k��,7.3,��
2021/10/20,16:10,0.577,0.861,0.550,1.054,0.740,0.357,0.617,0.579,�k��,6.5,��
2021/10/20,16:20,0.577,0.859,0.551,1.054,0.740,0.358,0.616,0.580,�k��,6.3,��
2021/10/20,16:30,0.578,0.861,0.549,1.053,0.742,0.357,0.615,0.581,�k��,5.7,��
2021/10/20,16:40,0.577,0.862,0.549,1.056,0.740,0.357,0.615,0.580,���k��,6.4,��
2021/10/20,16:50,0.578,0.862,0.550,1.053,0.740,0.357,0.615,0.581,���k��,6.9,��
2021/10/20,17:00,0.577,0.866,0.551,1.053,0.740,0.357,0.616,0.579,���k��,5.8,��
2021/10/20,17:10,0.577,0.863,0.551,1.055,0.742,0.357,0.616,0.580,���k��,6.1,��
2021/10/20,17:20,0.580,0.865,0.552,1.057,0.741,0.358,0.614,0.580,�k��,5.5,��
2021/10/20,17:30,0.578,0.864,0.552,1.054,0.744,0.358,0.616,0.580,��,4.6,��
2021/10/20,17:40,0.580,0.863,0.551,1.054,0.743,0.357,0.616,0.581,��,6.0,��
2021/10/20,17:50,0.580,0.865,0.552,1.053,0.744,0.358,0.617,0.579,��,7.6,��
2021/10/20,18:00,0.580,0.865,0.552,1.054,0.743,0.357,0.617,0.580,��,6.8,��
2021/10/20,18:10,0.580,0.864,0.553,1.055,0.743,0.357,0.618,0.580,��,8.5,��
2021/10/20,18:20,0.580,0.864,0.554,1.055,0.743,0.357,0.617,0.578,��,7.1,��
2021/10/20,18:30,0.578,0.863,0.552,1.055,0.742,0.355,0.618,0.579,��,8.4,��
2021/10/20,18:40,0.580,0.864,0.552,1.053,0.744,0.356,0.616,0.580,��,8.3,��
2021/10/20,18:50,0.579,0.864,0.552,1.055,0.741,0.357,0.617,0.580,���k��,7.5,��
2021/10/20,19:00,0.579,0.864,0.553,1.056,0.744,0.355,0.617,0.580,���k��,4.1,��
2021/10/20,19:10,0.580,0.862,0.553,1.057,0.742,0.356,0.617,0.581,���k��,4.7,��
2021/10/20,19:20,0.580,0.863,0.552,1.055,0.743,0.355,0.619,0.579,��,6.2,��
2021/10/20,19:30,0.578,0.862,0.552,1.056,0.743,0.358,0.617,0.580,��,6.6,��
2021/10/20,19:40,0.580,0.865,0.551,1.056,0.742,0.356,0.619,0.580,���k��,5.8,��
2021/10/20,19:50,0.580,0.862,0.552,1.057,0.744,0.357,0.618,0.580,��,6.1,��
2021/10/20,20:00,0.579,0.863,0.552,1.056,0.743,0.357,0.618,0.581,��,5.2,��
2021/10/20,20:10,0.580,0.863,0.550,1.056,0.744,0.355,0.617,0.581,��,5.1,��
2021/10/20,20:20,0.579,0.863,0.552,1.056,0.744,0.356,0.617,0.580,��,4.1,��
2021/10/20,20:30,0.579,0.864,0.552,1.056,0.744,0.357,0.619,0.580,���k��,3.1,��
2021/10/20,20:40,0.580,0.862,0.553,1.056,0.741,0.356,0.618,0.579,���k��,3.3,��
2021/10/20,20:50,0.579,0.863,0.553,1.055,0.743,0.355,0.617,0.579,���k��,2.9,��
2021/10/20,21:00,0.580,0.864,0.553,1.056,0.743,0.356,0.619,0.581,���쐼,4.9,��
2021/10/20,21:10,0.581,0.861,0.552,1.055,0.745,0.356,0.618,0.579,��,7.9,��
2021/10/20,21:20,0.579,0.864,0.552,1.057,0.744,0.355,0.617,0.581,��,10.3,��
2021/10/20,21:30,0.579,0.865,0.552,1.055,0.744,0.357,0.618,0.579,��,9.6,��
2021/10/20,21:40,0.578,0.864,0.552,1.056,0.744,0.356,0.619,0.580,��,7.2,��
2021/10/20,21:50,0.579,0.864,0.553,1.057,0.744,0.357,0.617,0.579,��,8.4,��
2021/10/20,22:00,0.577,0.865,0.554,1.056,0.744,0.358,0.618,0.579,���쐼,7.7,��
2021/10/20,22:10,0.579,0.864,0.551,1.058,0.743,0.355,0.618,0.578,���쐼,7.1,��
2021/10/20,22:20,0.580,0.862,0.551,1.057,0.744,0.357,0.620,0.580,���쐼,7.4,��
2021/10/20,22:30,0.579,0.864,0.552,1.058,0.743,0.354,0.619,0.579,���쐼,7.0,��
2021/10/20,22:40,0.581,0.865,0.552,1.056,0.741,0.357,0.618,0.580,��,6.5,��
2021/10/20,22:50,0.579,0.864,0.553,1.056,0.743,0.356,0.619,0.582,���쐼,7.4,��
2021/10/20,23:00,0.578,0.863,0.552,1.057,0.743,0.355,0.619,0.580,���쐼,6.2,��
2021/10/20,23:10,0.578,0.864,0.550,1.057,0.744,0.355,0.620,0.580,���쐼,5.7,��
2021/10/20,23:20,0.578,0.863,0.551,1.056,0.744,0.356,0.619,0.579,��,7.3,��
2021/10/20,23:30,0.580,0.863,0.552,1.057,0.743,0.358,0.618,0.580,��,8.5,��
2021/10/20,23:40,0.579,0.865,0.551,1.057,0.743,0.357,0.618,0.580,��,5.8,��
2021/10/20,23:50,0.579,0.863,0.552,1.056,0.741,0.355,0.618,0.580,��,5.1,��
